Location: Norton
(51.3000°N, 0.8167°E)
Time: 17:55:47
(UTC+00:00)

Cosmos 2123 Rocket - Pass Details

Date: 03 March 2021
Orbit: 960 x 993 km, 82.9° (Epoch: 13 April)

Event Time Altitude Azimuth Distance (km) Brightness Sun altitude
Rises 20:52:16 0° 350° (N) 3,700 7.6 -29.7°
Reaches altitude 10° 20:54:48 10° 352° (N) 2,744 6.8 -30.0°
Enters shadow 21:00:15 67° 14° (NNE) 1,056 4.1 -30.7°
